Flag for United Kingdom Weather past 2 weeks in Huddersfield, England, United Kingdom

Now
39 °F

Light rain. Broken clouds.


Feels Like: 32 °F
Forecast: 38 / 49 °F
Wind: 12 mph from Southwest

Location: Leeds And Bradford

Current Time: Mar 30, 2015 at 7:23:08 PM

Latest Report: Mar 30, 2015 at 6:50 PM


Visibility: N/A

Pressure: 29.45 "Hg

Humidity: 100%

Dew point: 39 °F

Location of HuddersfieldLocation

Historic Weather in Huddersfield — Graph

°F

Huddersfield temperature yesterday

Maximum temperature yesterday: 45 °F (at 12:20 AM)
Minimum temperature yesterday: 39 °F (at 10:50 PM)
Average temperature yesterday: 43 °F

Past Weeks' High & Low Weather Summary

 TemperatureHumidityPressure
High55 °F (Mar 28, 1:50 PM)100% (Mar 15, 10:20 PM)30.57 "Hg (Mar 15, 10:20 PM)
Low30 °F (Mar 18, 6:20 AM)46% (Mar 30, 2:50 PM)29.18 "Hg (Mar 29, 11:50 AM)
Average41 °F85%30.02 "Hg
* Reported Mar 15 5:20 PM — Mar 30 6:20 PM, Huddersfield, Weather by CustomWeather, © 2015

Note: Actual official high and low records may vary slightly from our data, if they occured in-between our weather recording intervals... More about our weather records

Advertising

Huddersfield weather history for previous 24 hours

 ConditionsComfort  
Time TempWeatherWind HumidityBarometerVisibility
6:20 PM
Mon, Mar 30
39 °FLight rain. Broken clouds.14 mph93%29.50 "HgN/A
5:50 PM39 °FLight rain. Broken clouds.16 mph93%29.53 "HgN/A
5:20 PM39 °FLight rain. Broken clouds.14 mph93%29.56 "HgN/A
4:50 PM41 °FLight rain. Broken clouds.16 mph87%29.59 "HgN/A
4:20 PM43 °FLight rain. Scattered clouds.15 mph66%29.62 "HgN/A
3:50 PM45 °FScattered clouds.20 mph53%29.65 "HgN/A
3:20 PM46 °FPassing clouds.22 mph46%29.65 "HgN/A
2:50 PM48 °FScattered clouds.21 mph46%29.68 "HgN/A
2:20 PM46 °FScattered clouds.17 mph53%29.68 "HgN/A
1:50 PM46 °FScattered clouds.20 mph53%29.68 "HgN/A
1:20 PM45 °FPassing clouds.16 mph57%29.71 "HgN/A
12:50 PM45 °FScattered clouds.23 mph57%29.71 "HgN/A
12:20 PM43 °FScattered clouds.20 mph61%29.71 "HgN/A
11:50 AM43 °FScattered clouds.17 mph61%29.71 "HgN/A
11:20 AM45 °FScattered clouds.21 mph66%29.71 "HgN/A
10:50 AM43 °FScattered clouds.17 mph66%29.71 "HgN/A
10:20 AM41 °FScattered clouds.18 mph70%29.71 "HgN/A
9:50 AM41 °FPassing clouds.15 mph76%29.68 "HgN/A
9:20 AM39 °FPassing clouds.21 mph81%29.68 "HgN/A
8:50 AM39 °FPassing clouds.22 mph75%29.65 "HgN/A
8:20 AM37 °FPassing clouds.15 mph87%29.65 "HgN/A
7:50 AM36 °FPassing clouds.16 mph87%29.65 "HgN/A
7:20 AM36 °FPassing clouds.15 mph87%29.62 "HgN/A
6:50 AM34 °FPassing clouds.15 mph93%29.59 "HgN/A
6:20 AM34 °FPassing clouds.16 mph93%29.59 "HgN/A
5:50 AM36 °FPassing clouds.18 mph87%29.56 "HgN/A
5:20 AM37 °FPassing clouds.20 mph87%29.53 "HgN/A
4:50 AM36 °FSprinkles. Passing clouds.26 mph93%29.50 "HgN/A
4:20 AM37 °FPassing clouds.25 mph81%29.47 "HgN/A
3:50 AM37 °FPassing clouds.28 mph87%29.47 "HgN/A
3:20 AM39 °FLight rain. Passing clouds.17 mph87%29.47 "HgN/A
2:50 AM37 °FPassing clouds.15 mph87%29.47 "HgN/A
2:20 AM37 °FPassing clouds.21 mph87%29.45 "HgN/A
1:50 AM37 °FLight rain. Passing clouds.18 mph87%29.45 "HgN/A
1:20 AM36 °FLight rain. Passing clouds.22 mph93%29.45 "HgN/A
12:50 AM39 °FLight rain. Passing clouds.20 mph81%29.42 "HgN/A
12:20 AM39 °FPassing clouds.18 mph81%29.42 "HgN/A
11:50 PM
Sun, Mar 29
39 °FPassing clouds.20 mph81%29.42 "HgN/A
11:20 PM39 °FClear.22 mph75%29.39 "Hg10 mi
10:50 PM39 °FPassing clouds.18 mph81%29.39 "HgN/A
10:20 PM41 °FPassing clouds.21 mph70%29.36 "HgN/A
9:50 PM41 °FPassing clouds.18 mph81%29.36 "HgN/A
9:20 PM41 °FPassing clouds.17 mph81%29.36 "HgN/A
8:50 PM41 °FPassing clouds.21 mph76%29.36 "HgN/A
8:20 PM41 °FPassing clouds.24 mph81%29.33 "HgN/A
7:50 PM43 °FScattered showers. Passing clouds.26 mph81%29.33 "HgN/A
7:20 PM43 °FSprinkles. Scattered clouds.24 mph81%29.30 "HgN/A
Weather by CustomWeather, © 2015

See weather overviewHow to use our weather pages